Location: Burzi?i
(45.0869°N, 16.0577°E)
Time: 23:12:20
(UTC+00:00)

FALCON 9 DEB - Visible Passes

Search period start: 02 March 2021 00:00
Search period end: 12 March 2021 00:00
Orbit: 372 x 386 km, 53.0° (Epoch: 01 March)

Date Brightness Start Highest point End Pass type
(mag) Time Alt. Az. Time Alt. Az. Time Alt. Az.
02 Mar 5.0 17:51:17 10° NW 17:53:39 19° N 17:55:32 12° NE visible
02 Mar 6.3 19:27:26 10° NW 19:27:40 11° NW 19:27:40 11° NW visible
03 Mar 4.8 18:27:12 10° NW 18:29:42 21° N 18:29:48 21° NNE visible
04 Mar 4.9 17:26:47 10° NW 17:29:09 19° N 17:31:30 10° NE visible
04 Mar 5.3 19:02:40 10° NW 19:04:03 21° NNW 19:04:03 21° NNW visible
05 Mar 4.5 18:02:27 10° NW 18:05:06 24° NNE 18:06:09 20° NE visible
05 Mar 6.4 19:38:05 10° WNW 19:38:18 12° WNW 19:38:18 12° WNW visible
06 Mar 3.7 18:37:48 10° NW 18:40:24 42° N 18:40:24 42° N visible
07 Mar 4.2 17:37:32 10° NW 17:40:21 28° NNE 17:42:32 14° ENE visible
07 Mar 5.3 19:13:13 10° WNW 19:14:40 24° WNW 19:14:40 24° WNW visible
08 Mar 2.9 18:12:49 10° NW 18:15:57 67° NNE 18:16:50 42° E visible
09 Mar 4.2 18:48:19 10° WNW 18:51:11 35° SW 18:51:11 35° SW visible
10 Mar 2.9 17:47:44 10° WNW 17:50:53 80° SW 17:53:28 14° SE visible
11 Mar 5.0 18:23:27 10° W 18:25:58 22° SW 18:27:59 13° S visible
